Location: Goheenville
(40.9070°N, 79.3720°W)
Time: 16:38:45
(UTC-04:00)

Daily predictions for brighter satellites

Satellite Brightness Start Highest point End
(mag) Time Altitude Azimuth Time Altitude Azimuth Time Altitude Azimuth
Tiangong 2 2.6 21:07:24 10° SSW 21:09:43 19° SSE 21:12:02 10° E
Cosmos 1975 Rocket 4.3 21:06:38 10° SSW 21:10:58 48° W 21:15:19 10° N
Aureole 1 Rocket 4.1 21:09:51 10° SE 21:11:51 15° ESE 21:13:42 10° ENE
NOSS 2-2 (E) 3.6 21:08:50 10° SSW 21:12:43 52° ESE 21:17:08 10° NE
Cosmos 1538 Rocket 4.2 21:13:24 10° SSW 21:18:34 79° WNW 21:23:46 10° NNE
ISS -2.2 21:20:01 10° S 21:22:12 17° SE 21:24:23 10° E
USA 186 3.1 21:19:45 10° S 21:22:48 39° W 21:25:50 10° NNW
BREEZE-M DEB (TANK) 4.4 21:18:52 10° WNW 21:22:59 72° SSW 21:37:04 11° SE
Cosmos 1666 3.7 21:20:39 10° NNE 21:23:58 29° ENE 21:26:56 12° SE
OAO 2 Rocket 3.9 21:21:49 10° SW 21:26:18 36° SSE 21:30:52 10° ESE
Cosmos 2315 Rocket 4.4 21:20:34 10° SSW 21:26:48 71° W 21:33:09 10° N
Cosmos 923 Rocket 4.1 21:21:59 10° S 21:27:10 56° ESE 21:32:22 10° NNE
CZ-3A R/B 2.5 21:28:46 10° S 21:32:07 16° SSE 21:33:09 14° SE
Cosmos 2184 Rocket 4.2 21:26:16 10° N 21:32:31 57° E 21:38:42 10° SSE
Cosmos 1536 Rocket 3.5 21:28:14 10° S 21:32:33 88° E 21:36:54 10° N
Cosmos 2074 Rocket 4.1 21:26:34 10° N 21:32:45 59° E 21:38:54 10° SSE
Cosmos 1437 2.7 21:31:30 10° S 21:34:42 86° W 21:37:57 10° N
CZ-4B DEB 2.7 21:32:11 10° S 21:35:10 77° W 21:38:09 10° NNW
Helios 1A 3.4 21:31:06 10° S 21:35:18 64° WSW 21:39:30 10° NNW
Meteor 1-29 3.1 21:36:50 10° N 21:40:13 74° WNW 21:43:35 10° SSW
Meteor 1-19 Rocket 4.3 21:35:17 10° S 21:41:05 71° E 21:46:48 10° NNE
Cosmos 1656 Rocket 3.6 21:39:31 10° NNW 21:45:00 86° ENE 21:49:50 14° SSE
YAOGAN 6 2.4 21:42:06 12° SSE 21:45:17 82° ENE 21:48:48 10° N
SAR-Lupe-4 4.3 21:42:01 10° S 21:45:30 52° WSW 21:49:02 10° NNW
Cosmos 2369 Rocket 4.4 21:41:26 10° NW 21:45:38 22° W 21:49:50 10° SSW
ERS-1 Rocket 3.1 21:41:29 12° SSE 21:46:01 64° ENE 21:51:00 10° N
MetOp-A 4.4 21:45:09 15° SE 21:49:29 52° ENE 21:54:41 10° N
Cosmos 1818 4.2 21:45:12 10° SW 21:50:34 61° NW 21:55:59 10° NNE
MOS 1-B Rocket 4.2 21:46:03 15° SE 21:50:42 53° ENE 21:56:49 10° N
Cosmos 405 Rocket 2.7 21:47:59 10° S 21:51:42 82° W 21:55:32 10° N
Resurs 01 Rocket 4.3 21:51:42 10° SW 21:54:31 16° W 21:57:20 10° NW
H-2A R/B 3.2 21:52:51 16° ESE 21:55:41 27° ENE 21:59:51 10° N
NOSS 2-2 (D) 3.8 21:51:44 10° SW 21:55:42 68° NW 22:00:16 10° NNE
Cosmos 2112 Rocket 3.9 21:54:46 10° S 21:59:58 72° ESE 22:05:10 10° NNE
Cosmos 192 4.4 21:55:51 10° S 22:00:39 58° ESE 22:05:29 10° NNE
Cosmos 1943 Rocket 3.8 21:56:02 10° NW 22:00:51 30° WSW 22:05:37 10° SSW
Cosmos 1025 Rocket 3.2 21:58:34 18° SSE 22:01:32 48° E 22:05:39 10° NNE
CENTAUR R/B 3.2 21:54:30 10° NW 22:02:28 78° WSW 22:09:18 17° SSE
Cosmos 1441 Rocket 3.0 22:01:18 14° S 22:04:27 71° E 22:08:11 10° NNE
Nadezhda 1 Rocket 4.0 22:01:17 10° S 22:07:36 82° E 22:14:02 10° N
PSLV R/B 3.0 22:06:04 10° W 22:09:12 88° N 22:10:40 29° E
Helios 1B rocket 4.5 22:06:55 10° N 22:10:30 29° WNW 22:14:05 10° SW
NOAA 11 4.1 22:07:48 18° SSE 22:11:59 86° ENE 22:17:27 10° NNW
Cosmos 2154 Rocket 4.1 22:09:50 10° N 22:16:10 67° E 22:20:26 22° SSE
COSMOS 2406 3.6 22:10:48 10° SSW 22:16:30 66° WNW 22:22:12 10° NNE
COSMOS 2455 4.3 22:11:44 10° NW 22:16:52 30° WSW 22:22:00 10° SSW
SL-08 RB Rocket 3.9 22:14:43 27° SE 22:16:54 53° ENE 22:21:16 10° N
ARGOS 3.2 22:13:33 22° SSE 22:17:02 70° ENE 22:22:26 10° N
SL-27 R/B 2.6 22:14:35 10° SSW 22:18:13 81° WNW 22:21:54 10° NNE
Cosmos 1680 Rocket 4.0 22:18:27 10° SSW 22:23:36 60° WNW 22:28:46 10° NNE
SPOT 5 2.5 22:23:05 30° SSE 22:25:12 80° ENE 22:29:33 10° N
H-2A R/B 3.5 22:24:49 21° E 22:26:15 25° ENE 22:29:57 10° NNE
Cosmos 2056 Rocket 3.8 22:21:52 10° N 22:26:55 51° ENE 22:29:09 30° SE
Cosmos 2082 Rocket 3.3 22:28:02 24° ESE 22:28:32 24° ESE 22:32:58 10° NE
Cosmos 405 3.4 22:30:02 10° NNW 22:33:34 58° W 22:34:56 32° SSW
Terra 2.7 22:37:11 29° ESE 22:38:37 35° ENE 22:42:57 10° N
Meteor 2-19 Rocket 4.4 22:35:01 10° N 22:41:10 79° E 22:44:22 30° SSE
Cosmos 967 Rocket 4.4 22:38:24 11° SSW 22:44:16 63° ESE 22:50:29 10° NE
Cosmos 2341 Rocket 4.0 22:37:55 10° N 22:44:17 81° E 22:47:39 30° SSE
Cosmos 2369 4.2 22:39:08 10° NNW 22:44:42 49° ENE 22:46:58 32° ESE
Tiangong 2 1.4 22:42:59 10° WSW 22:45:36 57° WSW 22:45:36 57° WSW
COSMOS 2487 3.7 22:47:21 29° ENE 22:47:21 29° ENE 22:49:40 10° NE
SPOT 1/Viking Rocket 3.5 22:44:17 34° SSE 22:46:37 89° W 22:51:49 10° NNW
Cosmos 1437 Rocket 2.8 22:44:38 10° NNW 22:48:27 72° W 22:49:25 47° SSW
Okean 2 4.0 22:50:04 24° SSW 22:52:19 54° W 22:56:21 10° N
Cosmos 1697 Rocket 3.9 22:49:22 10° N 22:54:18 30° ENE 22:56:25 24° E
IGS 5A 3.8 22:56:43 45° E 22:57:11 47° ENE 23:01:12 10° N
ISS -3.1 22:55:09 10° WSW 22:58:24 55° NNW 23:01:39 10° NE
Cosmos 1452 Rocket 4.2 22:54:11 10° N 22:59:09 41° ENE 23:00:34 34° ESE
Cosmos 2218 Rocket 4.2 22:54:34 10° N 23:00:36 55° E 23:02:38 39° SE
Cosmos 1892 Rocket 3.7 23:01:37 38° SSW 23:03:16 71° W 23:07:41 10° N
Cosmos 2228 2.8 23:02:03 10° N 23:06:22 80° E 23:06:54 67° SSE
Cosmos 1602 Rocket 4.1 23:10:37 42° E 23:10:37 42° E 23:14:27 10° NNE
OAO 2 Rocket 3.8 23:05:57 10° WSW 23:10:01 40° SSW 23:10:01 40° SSW
deb Chang Zheng 4 3.5 23:07:08 10° NNE 23:11:24 61° ESE 23:11:26 61° ESE
Cosmos 1833 Rocket 2.8 23:11:23 48° SE 23:12:11 52° ESE 23:17:38 10° NNE
Cosmos 921 Rocket 2.9 23:07:46 10° NNW 23:12:17 83° WSW 23:12:53 66° S
Cosmos 1656 3.8 23:09:34 10° NNW 23:14:58 60° ENE 23:16:17 47° ESE
Cosmos 1066 Rocket 4.0 23:15:05 49° S 23:16:37 78° E 23:22:13 10° NNE
Cosmos 2181 Rocket 4.3 23:13:08 25° SSW 23:17:02 68° W 23:23:20 10° N
SL-19 R/B 4.0 23:16:08 10° NNE 23:21:33 80° ESE 23:22:49 53° S
Cosmos 1766 4.2 23:22:05 10° N 23:25:11 37° NE 23:25:11 37° NE
CZ-4 R/B 3.8 23:20:57 10° NNE 23:25:58 70° ESE 23:26:30 64° SE
Meteor 1-4 Rocket 3.1 23:27:26 10° N 23:30:20 55° N 23:30:20 55° N
Cosmos 1809 Rocket 4.3 23:25:13 10° N 23:31:20 88° E 23:32:56 53° S
USA 267 3.2 23:25:35 10° NE 23:32:01 58° SE 23:34:02 42° S
Meteor 2-14 Rocket 4.4 23:27:48 10° N 23:33:52 68° E 23:35:09 54° SE
H-2A R/B 3.1 23:33:29 28° SW 23:34:58 34° W 23:39:30 10° NNW
Cosmos 2058 Rocket 4.0 23:31:01 10° NNW 23:35:08 40° W 23:35:51 37° WSW
SL-19 R/B 4.5 23:35:19 85° SW 23:35:22 86° WSW 23:39:29 10° NNW
CARTOSAT-1 3.9 23:36:38 54° WSW 23:36:51 55° W 23:41:06 10° NNW
Cosmos 1980 Rocket 2.9 23:35:54 10° N 23:41:17 42° ENE 23:42:26 38° E
SME Rocket 4.3 23:46:35 40° E 23:47:13 42° ENE 23:51:25 10° N
SeaSat 1 3.7 23:46:39 29° ENE 23:47:40 31° NE 23:52:00 10° N
Cosmos 2322 Rocket 4.1 23:45:14 10° N 23:49:22 20° NE 23:51:42 16° E
Meteor 2-16 Rocket 4.3 23:47:22 10° N 23:53:32 85° E 23:54:38 63° SSE
